Location: *
(9.9772°S, 113.2358°E)
Time: 05:31:57
(UTC+00:00)

Lacrosse 4 Rocket - Pass Details

Date: 30 September 2022
Orbit: 533 x 616 km, 68.0° (Epoch: 06 December)

Event Time Altitude Azimuth Distance (km) Brightness Sun altitude
Rises 11:14:48 0° 201° (SSW) 2,701 5.2 -13.7°
Reaches altitude 10° 11:17:00 10° 202° (SSW) 1,798 4.3 -14.2°
Maximum altitude 11:21:00 80° 288° (WNW) 546 1.3 -15.2°
Drops below altitude 10° 11:24:57 10° 16° (NNE) 1,775 3.7 -16.2°
Enters shadow 11:26:06 - 16° (NNE) 2,244 4.2 -16.4°
